Terug naar catalogus

TIANHUI 2-01A

ActiefWetenschapSSO
NORAD 44207·PAYLOAD·🇨🇳 China

Gelanceerd Apr 29, 2019 vanaf Taiyuan Satellite Launch Center

Loading…

Volgende Passages (komende 24 uur)

TLE

VersSource: Space-Track

Epoch: Sep 14, 2026, 11:40 UTC

1 44207U 19024A   26257.48631281  .00001255  00000-0  67380-4 0  9999
2 44207  97.4848 260.2535 0001543 106.3184 253.8219 15.16747988115674

Volg TIANHUI 2-01A in realtime met AllMySat

Download on the App Store